Location: ??????
(42.0089°N, 44.3281°E)
Time: 20:40:40
(UTC+00:00)

CZ-2C R/B - Pass Details

Date: 31 May 2022
Orbit: 785 x 869 km, 98.2° (Epoch: 25 June)

Event Time Altitude Azimuth Distance (km) Brightness Sun altitude
Rises 23:52:51 0° 109° (ESE) 3,294 6.1 -14.6°
Reaches altitude 10° 23:56:38 10° 80° (E) 2,385 5.8 -14.1°
Maximum altitude 23:58:40 12° 57° (ENE) 2,237 6.1 -13.9°
Drops below altitude 10° 00:00:43 10° 35° (NE) 2,410 6.5 -13.6°
Sets 00:04:35 0° 7° (N) 3,369 6.8 -13.1°
